When you browse on this site, cookies collect data to enhance your experience and personalize the content and advertising you see.
Visit our Privacy Policy to learn more. By continuing to use the site, you agree to this use of cookies and data.
  • In France
  • List of Countries
  • For 7 days
  • Water Temperature
  • Satellite Maps
  • Weather Map
  • Weather Widgets
  • user-avatar
    Login

    Hourly Weather Bunia

    Today, 24 May, Friday

    Time Temperature Precipitation Wind Pressure Humidity
    00:00 +20°C° 0.1 mm 1 mps 655 mmHg 91%
    01:00 +20°C° 0.1 mm 1 mps 655 mmHg 91%
    02:00 +20°C° 0.1 mm 1 mps 655 mmHg 92%
    03:00 +20°C° 0 mm 1 mps 655 mmHg 91%
    04:00 +20°C° 0 mm 1 mps 655 mmHg 90%
    05:00 +20°C° 0 mm 1 mps 655 mmHg 89%
    06:00 +21°C° 0.2 mm 1 mps 655 mmHg 89%
    07:00 +21°C° 0.2 mm 1 mps 656 mmHg 88%
    08:00 +21°C° 0.2 mm 1 mps 656 mmHg 87%
    09:00 +22°C° 0.2 mm 1 mps 657 mmHg 82%
    10:00 +23°C° 0.2 mm 2 mps 657 mmHg 78%
    11:00 +24°C° 0.2 mm 2 mps 657 mmHg 73%
    12:00 +26°C° 0.1 mm 1 mps 657 mmHg 65%
    13:00 +28°C° 0.1 mm 1 mps 656 mmHg 57%
    14:00 +30°C° 0.1 mm 1 mps 656 mmHg 49%
    15:00 +28°C° 0.8 mm 1 mps 656 mmHg 57%
    16:00 +27°C° 0.8 mm 1 mps 655 mmHg 64%
    17:00 +26°C° 0.8 mm 1 mps 655 mmHg 72%
    18:00 +24°C° 1.5 mm 1 mps 655 mmHg 77%
    19:00 +23°C° 1.5 mm 1 mps 655 mmHg 83%
    20:00 +21°C° 1.5 mm 1 mps 655 mmHg 88%
    21:00 +21°C° 1.1 mm 1 mps 655 mmHg 90%
    22:00 +21°C° 1.1 mm 1 mps 656 mmHg 92%
    23:00 +21°C° 1.1 mm 1 mps 656 mmHg 94%

    Tomorrow, 25 May, Saturday

    Time Temperature Precipitation Wind Pressure Humidity
    00:00 +20°C° 0.3 mm 1 mps 656 mmHg 94%
    01:00 +20°C° 0.3 mm 1 mps 655 mmHg 94%
    02:00 +20°C° 0.3 mm 1 mps 655 mmHg 94%
    03:00 +20°C° 0.3 mm 1 mps 655 mmHg 94%
    04:00 +20°C° 0.3 mm 1 mps 655 mmHg 94%
    05:00 +19°C° 0.3 mm 2 mps 654 mmHg 93%
    06:00 +19°C° 0.5 mm 2 mps 655 mmHg 92%
    07:00 +19°C° 0.5 mm 2 mps 655 mmHg 91%
    08:00 +19°C° 0.5 mm 2 mps 656 mmHg 90%
    09:00 +20°C° 0.7 mm 2 mps 656 mmHg 89%
    10:00 +20°C° 0.7 mm 2 mps 656 mmHg 89%
    11:00 +21°C° 0.7 mm 2 mps 656 mmHg 88%
    12:00 +24°C° 0.1 mm 2 mps 655 mmHg 79%
    13:00 +25°C° 0.1 mm 2 mps 655 mmHg 70%
    14:00 +27°C° 0.1 mm 2 mps 655 mmHg 61%
    15:00 +26°C° 0.4 mm 2 mps 655 mmHg 66%
    16:00 +26°C° 0.4 mm 2 mps 654 mmHg 71%
    17:00 +25°C° 0.4 mm 2 mps 654 mmHg 76%
    18:00 +24°C° 1.5 mm 2 mps 654 mmHg 81%
    19:00 +21°C° 1.5 mm 2 mps 655 mmHg 86%
    20:00 +21°C° 1.5 mm 1 mps 655 mmHg 91%
    21:00 +20°C° 0.3 mm 2 mps 655 mmHg 92%
    22:00 +20°C° 0.3 mm 2 mps 655 mmHg 93%
    23:00 +20°C° 0.3 mm 2 mps 655 mmHg 93%

    Day after tomorrow, 26 May, Sunday

    Time Temperature Precipitation Wind Pressure Humidity
    00:00 +20°C° 0.2 mm 2 mps 655 mmHg 94%
    01:00 +20°C° 0.2 mm 2 mps 654 mmHg 94%
    02:00 +19°C° 0.2 mm 2 mps 654 mmHg 94%
    03:00 +19°C° 0 mm 2 mps 654 mmHg 93%
    04:00 +19°C° 0 mm 2 mps 654 mmHg 92%
    05:00 +19°C° 0 mm 2 mps 654 mmHg 90%
    06:00 +19°C° 0.3 mm 2 mps 654 mmHg 89%
    07:00 +20°C° 0.3 mm 2 mps 654 mmHg 88%
    08:00 +20°C° 0.3 mm 2 mps 655 mmHg 87%
    09:00 +21°C° 0.2 mm 3 mps 655 mmHg 81%
    10:00 +24°C° 0.2 mm 3 mps 655 mmHg 75%
    11:00 +25°C° 0.2 mm 3 mps 655 mmHg 69%
    12:00 +27°C° 0.1 mm 3 mps 655 mmHg 63%
    13:00 +28°C° 0.1 mm 3 mps 655 mmHg 57%
    14:00 +30°C° 0.1 mm 2 mps 655 mmHg 51%
    15:00 +29°C° 0.9 mm 2 mps 654 mmHg 59%
    16:00 +27°C° 0.9 mm 2 mps 654 mmHg 66%
    17:00 +26°C° 0.9 mm 1 mps 653 mmHg 73%
    18:00 +24°C° 1.7 mm 1 mps 654 mmHg 79%
    19:00 +23°C° 1.7 mm 1 mps 654 mmHg 84%
    20:00 +22°C° 1.7 mm 1 mps 654 mmHg 89%
    21:00 +21°C° 1 mm 1 mps 654 mmHg 91%
    22:00 +21°C° 1 mm 1 mps 654 mmHg 93%
    23:00 +20°C° 1 mm 1 mps 655 mmHg 94%

    27 May, Monday

    Time Temperature Precipitation Wind Pressure Humidity
    00:00 +20°C° 0.1 mm 1 mps 654 mmHg 94%
    01:00 +20°C° 0.1 mm 1 mps 654 mmHg 95%
    02:00 +20°C° 0.1 mm 1 mps 653 mmHg 95%
    03:00 +20°C° 0 mm 1 mps 653 mmHg 94%
    04:00 +20°C° 0 mm 1 mps 653 mmHg 94%
    05:00 +20°C° 0 mm 1 mps 654 mmHg 93%
    06:00 +21°C° 0.1 mm 1 mps 654 mmHg 90%
    07:00 +21°C° 0.1 mm 1 mps 655 mmHg 88%
    08:00 +22°C° 0.1 mm 1 mps 656 mmHg 85%
    09:00 +24°C° 0.1 mm 2 mps 656 mmHg 75%
    10:00 +26°C° 0.1 mm 2 mps 656 mmHg 65%
    11:00 +28°C° 0.1 mm 2 mps 656 mmHg 55%
    12:00 +28°C° 0.3 mm 2 mps 655 mmHg 56%
    13:00 +28°C° 0.3 mm 2 mps 655 mmHg 58%
    14:00 +29°C° 0.3 mm 2 mps 654 mmHg 60%
    15:00 +27°C° 0.9 mm 2 mps 654 mmHg 65%
    16:00 +26°C° 0.9 mm 2 mps 654 mmHg 71%
    17:00 +25°C° 0.9 mm 2 mps 654 mmHg 76%
    18:00 +24°C° 1.1 mm 2 mps 654 mmHg 80%
    19:00 +23°C° 1.1 mm 2 mps 654 mmHg 84%
    20:00 +20°C° 1.1 mm 2 mps 655 mmHg 88%
    21:00 +20°C° 0 mm 2 mps 654 mmHg 88%
    22:00 +20°C° 0 mm 2 mps 654 mmHg 88%
    23:00 +20°C° 0 mm 2 mps 654 mmHg 89%

    28 May, Tuesday

    Time Temperature Precipitation Wind Pressure Humidity
    00:00 +19°C° 0 mm 2 mps 654 mmHg 89%
    01:00 +20°C° 0 mm 1 mps 653 mmHg 90%
    02:00 +19°C° 0 mm 1 mps 653 mmHg 91%
    03:00 +19°C° 0 mm 1 mps 653 mmHg 90%
    04:00 +19°C° 0 mm 1 mps 653 mmHg 89%
    05:00 +19°C° 0 mm 1 mps 654 mmHg 88%
    06:00 +21°C° 0 mm 1 mps 655 mmHg 81%
    07:00 +23°C° 0 mm 1 mps 655 mmHg 74%
    08:00 +25°C° 0 mm 1 mps 656 mmHg 66%
    09:00 +26°C° 0 mm 2 mps 656 mmHg 60%
    10:00 +28°C° 0 mm 2 mps 656 mmHg 54%
    11:00 +29°C° 0 mm 2 mps 656 mmHg 48%
    12:00 +30°C° 0.1 mm 2 mps 656 mmHg 47%
    13:00 +30°C° 0.1 mm 2 mps 655 mmHg 46%
    14:00 +31°C° 0.1 mm 1 mps 655 mmHg 45%
    15:00 +29°C° 0.2 mm 1 mps 654 mmHg 52%
    16:00 +28°C° 0.2 mm 1 mps 654 mmHg 60%
    17:00 +26°C° 0.2 mm 1 mps 654 mmHg 68%
    18:00 +24°C° 0.6 mm 1 mps 654 mmHg 75%
    19:00 +23°C° 0.6 mm 1 mps 654 mmHg 82%
    20:00 +19°C° 0.6 mm 0 mps 654 mmHg 89%
    21:00 +18°C° 0.5 mm 0 mps 655 mmHg 90%
    22:00 +18°C° 0.5 mm 0 mps 655 mmHg 92%
    23:00 +18°C° 0.5 mm 0 mps 655 mmHg 93%

    29 May, Wednesday

    Time Temperature Precipitation Wind Pressure Humidity
    00:00 +17°C° 0.1 mm 0 mps 654 mmHg 94%
    01:00 +17°C° 0.1 mm 0 mps 654 mmHg 94%
    02:00 +17°C° 0.1 mm 0 mps 653 mmHg 95%
    03:00 +17°C° 0 mm 0 mps 653 mmHg 94%
    04:00 +17°C° 0 mm 0 mps 654 mmHg 94%
    05:00 +17°C° 0 mm 0 mps 654 mmHg 94%
    06:00 +18°C° 0 mm 0 mps 655 mmHg 90%
    07:00 +20°C° 0 mm 0 mps 656 mmHg 86%
    08:00 +21°C° 0 mm 0 mps 656 mmHg 82%
    09:00 +25°C° 0 mm 1 mps 656 mmHg 71%
    10:00 +27°C° 0 mm 1 mps 657 mmHg 59%
    11:00 +29°C° 0 mm 2 mps 657 mmHg 48%
    12:00 +29°C° 0 mm 2 mps 656 mmHg 46%
    13:00 +30°C° 0 mm 2 mps 655 mmHg 45%
    14:00 +30°C° 0 mm 2 mps 655 mmHg 43%
    15:00 +29°C° 0 mm 1 mps 655 mmHg 50%
    16:00 +28°C° 0 mm 1 mps 654 mmHg 57%
    17:00 +27°C° 0 mm 1 mps 654 mmHg 63%
    18:00 +25°C° 0.2 mm 1 mps 654 mmHg 71%
    19:00 +21°C° 0.2 mm 0 mps 655 mmHg 79%
    20:00 +19°C° 0.2 mm 0 mps 655 mmHg 87%
    21:00 +18°C° 0.1 mm 0 mps 655 mmHg 89%
    22:00 +18°C° 0.1 mm 0 mps 655 mmHg 91%
    23:00 +18°C° 0.1 mm 0 mps 655 mmHg 92%
    Show more